Station PVDR1 - 8453662 - Providence Visibility, RI Image indicating link to RSS feed of recent meteorological observations for station PVDR1


Conditions at PVDR1 as of
(2:00 am EDT)
0600 GMT on 07/19/2024:
     

Click on the graph icon in the table below to see a time series plot of the last five days of that observation.

5-day plot - Wind Direction Wind Direction (WDIR): NW ( 320 deg true )
5-day plot - Wind Speed Wind Speed (WSPD): 5.1 kts
5-day plot - Wind Gust Wind Gust (GST): 11.1 kts
5-day plot - Atmospheric Pressure Atmospheric Pressure (PRES):29.98 in
5-day plot - Pressure Tendency Pressure Tendency (PTDY):+0.01 in ( Rising )
5-day plot - Air Temperature Air Temperature (ATMP): 70.5 °F
5-day plot - Visibility Visibility (VIS): 5.9 nmi
5-day plot - Wind Speed at 10 Meters Wind Speed at 10 meters (WSPD10M): 5.8 kts
5-day plot - Wind Speed at 20 Meters Wind Speed at 20 meters (WSPD20M): 5.8 kts
5-day plot -  Wind Speed, Wind Gust and Atmospheric Pressure Combined plot of Wind Speed, Gust, and Air Pressure
NOS Water Level Observation Network Water Level
Previous observations
TIME
(EDT)
5-day plot - Wind Direction
WDIR
 
5-day plot - Wind Speed
WSPD
kts
5-day plot - Wind Gust
GST
kts
5-day plot - Wave Height
WVHT
ft
5-day plot - Dominant Wave Period
DPD
sec
5-day plot - Average Wave Period
APD
sec
5-day plot - Mean Wave Direction
MWD
 
5-day plot - Atmospheric Pressure
PRES
in
5-day plot - Pressure Tendency
PTDY
in
5-day plot - Air Temperature
ATMP
°F
5-day plot - Water Temperature
WTMP
°F
5-day plot - Dew Point
DEWP
°F
5-day plot - Salinity
SAL
psu
5-day plot - Visibility
VIS
nmi
5-day plot - Tide (above MLLW)
TIDE
ft
2024-07-19 01:54 am NW 7.0 12.0----29.98- 70.7--- 5.9-
2024-07-19 01:48 am NW 5.1 9.9----29.98- 70.7--- 5.9-
2024-07-19 01:42 am NW 7.0 9.9----29.98- 70.9--- 5.9-
2024-07-19 01:36 am NW 6.0 8.9----29.98- 70.9--- 5.9-
2024-07-19 01:30 am NW 4.1 8.9----29.98- 70.9--- 5.9-
2024-07-19 01:24 am NW 4.1 8.9----29.98- 71.1--- 5.9-
2024-07-19 01:18 am NW 5.1 8.9----29.98- 71.1--- 5.9-
2024-07-19 01:12 am NW 5.1 8.9----29.98- 71.2--- 5.9-
2024-07-19 01:06 am NW 5.1 8.9----29.98- 71.4--- 5.9-
2024-07-19 01:00 am NW 5.1 8.0----29.98+0.02 71.8--- 5.9-
2024-07-19 12:54 amNNW 2.9 7.0----29.98- 72.0--- 5.9-
2024-07-19 12:48 amNNW 4.1 7.0----29.98- 72.3--- 5.9-
2024-07-19 12:42 am NW 5.1 8.0----29.98- 72.3--- 5.9-
2024-07-19 12:36 am NW 5.1 9.9----29.98- 72.7--- 5.9-
2024-07-19 12:30 am NW 7.0 8.9----29.98- 72.9--- 5.9-
2024-07-19 12:24 am NW 7.0 9.9----29.98- 72.9--- 5.9-
2024-07-19 12:18 am NW 7.0 9.9----29.97- 73.0--- 5.9-
2024-07-19 12:12 am NW 7.0 11.1----29.97- 73.6--- 5.9-
2024-07-19 12:06 amWNW 5.1 9.9----29.97- 73.4--- 5.9-
2024-07-19 12:00 am NW 4.1 8.9----29.98+0.04 73.4--- 5.9-
2024-07-18 11:54 pmWNW 4.1 8.0----29.98- 73.6--- 5.9-
2024-07-18 11:48 pmWNW 5.1 6.0----29.98- 74.1--- 5.9-
2024-07-18 11:42 pm W 2.9 6.0----29.98- 74.5--- 5.9-
2024-07-18 11:36 pmWNW 4.1 5.1----29.98- 73.9--- 5.9-
2024-07-18 11:30 pm W 2.9 6.0----29.98- 74.1--- 5.9-
2024-07-18 11:24 pm W 2.9 5.1----29.97- 74.5--- 5.9-
2024-07-18 11:18 pm W 2.9 6.0----29.98- 74.7--- 5.9-
2024-07-18 11:12 pm W 4.1 5.1----29.97- 74.7--- 5.9-
2024-07-18 11:06 pm W 4.1 7.0----29.97- 74.8--- 5.9-
2024-07-18 11:00 pm W 4.1 7.0----29.97+0.05 74.8--- 5.9-
2024-07-18 10:54 pmWNW 5.1 7.0----29.97- 75.0--- 5.9-
2024-07-18 10:48 pm W 4.1 7.0----29.97- 75.4--- 5.9-
2024-07-18 10:42 pmWNW 4.1 5.1----29.97- 75.4--- 5.9-
2024-07-18 10:36 pm W 2.9 5.1----29.97- 75.9--- 5.9-
2024-07-18 10:30 pm W 4.1 7.0----29.96- 75.9--- 5.9-
2024-07-18 10:24 pm W 4.1 7.0----29.96- 75.9--- 5.9-
2024-07-18 10:18 pm W 5.1 7.0----29.96- 76.1--- 5.9-
2024-07-18 10:12 pm W 4.1 7.0----29.96- 76.3--- 5.9-
2024-07-18 10:06 pmWNW 6.0 8.0----29.96- 76.3--- 5.9-
2024-07-18 10:00 pmWNW 6.0 9.9----29.96+0.06 76.3--- 5.9-
2024-07-18 09:54 pm W 4.1 8.0----29.96- 76.6--- 5.9-
2024-07-18 09:48 pm W 6.0 8.0----29.96- 76.8--- 5.9-
2024-07-18 09:42 pmWNW 6.0 8.0----29.96- 76.8--- 5.9-
2024-07-18 09:36 pmWNW 5.1 8.9----29.95- 77.2--- 5.9-
2024-07-18 09:30 pmWNW 6.0 11.1----29.95- 77.5--- 5.9-
2024-07-18 09:24 pmWNW 7.0 12.0----29.95- 77.9--- 5.9-
2024-07-18 09:18 pm W 4.1 6.0----29.95- 78.1--- 5.9-
2024-07-18 09:12 pm W 5.1 7.0----29.95- 78.4--- 5.9-
2024-07-18 09:06 pm W 5.1 7.0----29.94- 78.4--- 5.9-
2024-07-18 09:00 pmWNW 5.1 9.9----29.94+0.07 78.6--- 5.9-
2024-07-18 08:54 pmWNW 6.0 9.9----29.94- 79.2--- 5.9-
2024-07-18 08:48 pmWNW 7.0 12.0----29.94- 79.2--- 5.9-
2024-07-18 08:42 pmWNW 8.0 12.0----29.94- 79.5--- 5.9-
2024-07-18 08:36 pmWNW 7.0 12.0----29.94- 79.3--- 5.9-
2024-07-18 08:30 pm NW 8.0 14.0----29.93- 79.3--- 5.9-
2024-07-18 08:24 pm NW 7.0 12.0----29.93- 79.2--- 5.9-
2024-07-18 08:18 pm NW 7.0 11.1----29.93- 79.2--- 5.9-
2024-07-18 08:12 pmWNW 7.0 15.9----29.93- 79.2--- 5.9-
2024-07-18 08:06 pm NW 8.0 12.0----29.93- 79.2--- 5.9-
2024-07-18 08:00 pm NW 7.0 13.0----29.92+0.05 79.3--- 5.9-
2024-07-18 07:54 pm NW 8.9 15.9----29.92- 79.7--- 5.9-
2024-07-18 07:48 pm NW 9.9 15.0----29.91- 80.1--- 5.9-
2024-07-18 07:42 pm NW 8.9 18.1----29.91- 80.1--- 5.9-
2024-07-18 07:36 pm NW 5.1 9.9----29.91- 80.2--- 5.9-
2024-07-18 07:30 pm NW 7.0 14.0----29.91- 80.8--- 5.9-
2024-07-18 07:24 pm NW 7.0 12.0----29.90- 81.0--- 5.9-
2024-07-18 07:00 pmWNW 8.0 17.1----29.89+0.02 81.9--- 5.9-
2024-07-18 06:54 pmWNW 12.0 17.1----29.89- 82.2--- 5.9-
2024-07-18 06:48 pmWNW 13.0 17.1----29.88- 82.4--- 5.9-
2024-07-18 06:42 pmWNW 13.0 21.0----29.88- 83.1--- 5.9-
2024-07-18 06:36 pmWNW 9.9 14.0----29.88- 83.8--- 5.9-
2024-07-18 06:30 pmWNW 8.9 12.0----29.88- 83.7--- 5.9-
2024-07-18 06:24 pmWNW 8.0 14.0----29.88- 83.7--- 5.9-
2024-07-18 06:18 pmWNW 7.0 12.0----29.88- 84.4--- 5.9-
2024-07-18 06:12 pm W 8.0 13.0----29.88- 84.0--- 5.9-
2024-07-18 06:06 pmWNW 8.9 14.0----29.87- 84.0--- 5.9-
2024-07-18 06:00 pm W 4.1 7.0----29.87+0.00 84.4--- 5.9-
2024-07-18 05:54 pmWNW 8.9 14.0----29.87- 84.4--- 5.9-
2024-07-18 05:48 pmWNW 8.9 13.0----29.87- 85.1--- 5.9-
2024-07-18 05:42 pm W 5.1 9.9----29.87- 85.3--- 5.9-
2024-07-18 05:36 pm W 8.0 12.0----29.87- 85.6--- 5.9-
2024-07-18 05:30 pmWNW 7.0 8.9----29.87- 86.2--- 5.9-
2024-07-18 05:24 pmWNW 4.1 8.9----29.87- 86.2--- 5.9-
2024-07-18 05:18 pm W 7.0 12.0----29.87- 84.7--- 5.9-
2024-07-18 05:12 pm W 11.1 13.0----29.87- 85.1--- 5.9-
2024-07-18 05:06 pmWSW 8.9 13.0----29.87- 85.3--- 5.9-
2024-07-18 05:00 pmWNW 7.0 11.1----29.87+0.00 86.2--- 5.9-
2024-07-18 04:54 pmWNW 9.9 14.0----29.87- 85.8--- 5.9-
2024-07-18 04:48 pm W 7.0 12.0----29.87- 85.5--- 5.9-
2024-07-18 04:42 pm W 7.0 11.1----29.87- 85.5--- 5.9-
2024-07-18 04:36 pm W 6.0 11.1----29.87- 84.9--- 5.9-
2024-07-18 04:30 pm W 5.1 9.9----29.87- 86.2--- 5.9-
2024-07-18 04:24 pmWNW 8.0 12.0----29.87- 85.1--- 5.9-
2024-07-18 04:18 pm W 7.0 12.0----29.87- 84.6--- 5.9-
2024-07-18 04:12 pm W 6.0 8.9----29.87- 85.5--- 5.9-
2024-07-18 04:06 pm W 8.0 11.1----29.87- 84.9--- 5.9-
2024-07-18 04:00 pmWNW 6.0 11.1----29.87+0.00 85.6--- 5.9-
2024-07-18 03:54 pm W 4.1 11.1----29.87- 85.5--- 5.9-
2024-07-18 03:48 pm W 6.0 13.0----29.87- 85.1--- 5.9-
2024-07-18 03:42 pmWNW 2.9 8.9----29.87- 86.2--- 5.9-
2024-07-18 03:36 pmWNW 6.0 14.0----29.87- 85.8--- 5.9-
2024-07-18 03:30 pmWNW 2.9 7.0----29.87- 87.4--- 5.9-
2024-07-18 03:24 pmWNW 6.0 12.0----29.87- 86.4--- 5.9-
2024-07-18 03:18 pm NW 4.1 7.0----29.87- 86.2--- 5.9-
2024-07-18 03:12 pmWNW 6.0 9.9----29.87- 86.0--- 5.9-
2024-07-18 03:06 pmWNW 1.9 5.1----29.87- 86.7--- 5.9-
2024-07-18 03:00 pm N 4.1 6.0----29.87+0.01 86.5--- 5.9-
2024-07-18 02:54 pm NW 5.1 8.9----29.87- 85.8--- 5.9-
2024-07-18 02:48 pm NW 5.1 8.0----29.87- 86.2--- 5.9-
2024-07-18 02:42 pm N 2.9 11.1----29.87- 86.2--- 5.9-
2024-07-18 02:36 pmWNW 5.1 7.0----29.87- 85.6--- 5.9-
2024-07-18 02:30 pm N 4.1 8.0----29.87- 85.3--- 5.9-
2024-07-18 02:24 pm N 2.9 5.1----29.87- 86.5--- 5.9-
2024-07-18 02:18 pm- 0.0 7.0----29.87- 85.5--- 5.9-
2024-07-18 02:12 pmWNW 5.1 11.1----29.87- 84.6--- 5.9-
2024-07-18 02:06 pm NW 4.1 8.9----29.87- 84.6--- 5.9-
2024-07-18 02:00 pm NW 4.1 8.0----29.87+0.00 83.5--- 5.9-
2024-07-18 01:54 pm NW 4.1 9.9----29.87- 84.0--- 5.9-
2024-07-18 01:48 pmWNW 5.1 8.9----29.87----- 5.9-
2024-07-18 01:42 pmWNW 6.0 11.1----29.87----- 5.9-
2024-07-18 01:36 pm W 6.0 9.9----29.87----- 5.9-
2024-07-18 01:30 pmWNW 5.1 7.0----29.87- 82.4--- 5.9-
2024-07-18 01:24 pm W 4.1 7.0----29.88- 82.0--- 5.9-
2024-07-18 01:18 pmWNW 2.9 8.0----29.88- 81.9--- 5.9-
2024-07-18 01:12 pmNNW 2.9 8.0----29.88- 82.0--- 5.9-
2024-07-18 01:06 pmNNW 5.1 7.0----29.87- 81.9--- 5.9-
2024-07-18 01:00 pm NW 4.1 7.0----29.87+0.03 81.7--- 5.9-
2024-07-18 12:54 pm NW 4.1 6.0----29.87- 82.2--- 5.9-
2024-07-18 12:48 pmWNW 5.1 8.9----29.87- 81.7--- 5.9-
2024-07-18 12:42 pm N 2.9 6.0----29.87- 82.4--- 5.9-
2024-07-18 12:36 pmNNW 2.9 8.9----29.86- 82.4--- 5.9-
2024-07-18 12:30 pm NW 2.9 8.0----29.86- 82.4--- 5.9-
2024-07-18 12:24 pm NW 4.1 8.9----29.86- 82.2--- 5.9-
2024-07-18 12:18 pm N 2.9 8.0----29.86- 82.9--- 5.9-
2024-07-18 12:12 pm NW 1.9 8.0----29.86- 82.9--- 5.9-
2024-07-18 12:06 pmNNW 2.9 6.0----29.86- 82.6--- 5.9-
2024-07-18 12:00 pmNNW 2.9 7.0----29.86+0.02 82.8--- 5.9-
2024-07-18 11:54 amNNW 2.9 8.0----29.86- 82.4--- 5.9-
2024-07-18 11:48 am NW 5.1 9.9----29.85- 81.5--- 5.9-
2024-07-18 11:42 am NW 6.0 9.9----29.86- 81.3--- 5.9-
2024-07-18 11:36 am NW 6.0 11.1----29.86- 82.4--- 5.9-
2024-07-18 11:30 amNNW 5.1 8.9----29.86- 82.6--- 5.9-
2024-07-18 11:24 amNNW 2.9 6.0----29.86- 81.7--- 5.9-
2024-07-18 11:18 am N 4.1 9.9----29.86- 80.8--- 5.9-
2024-07-18 11:12 am NW 4.1 8.9----29.86- 80.6--- 5.9-
2024-07-18 11:06 amWNW 6.0 8.9----29.86- 80.1--- 5.9-
2024-07-18 11:00 am NW 5.1 9.9----29.86+0.02 80.1--- 5.9-
2024-07-18 10:54 amWNW 7.0 9.9----29.86- 80.2--- 5.9-
2024-07-18 10:48 amWNW 5.1 8.9----29.86- 80.6--- 5.9-
2024-07-18 10:42 amWNW 7.0 9.9----29.86- 80.1--- 5.9-
2024-07-18 10:36 amWNW 6.0 8.9----29.85- 80.4--- 5.9-
2024-07-18 10:30 am NW 6.0 8.9----29.85- 79.9--- 5.9-
2024-07-18 10:24 am NW 7.0 9.9----29.85- 79.7--- 5.9-
2024-07-18 10:18 amNNW 2.9 7.0----29.84- 79.5--- 5.9-
2024-07-18 10:12 am NW 2.9 8.0----29.85- 79.2--- 5.9-
2024-07-18 10:06 amNNW 4.1 11.1----29.84- 78.8--- 5.9-
2024-07-18 10:00 am NW 5.1 9.9----29.84+0.00 79.0--- 5.9-
2024-07-18 09:54 am NW 8.0 11.1----29.85- 78.6--- 5.9-
2024-07-18 09:48 am NW 8.0 13.0----29.84- 78.4--- 5.9-
2024-07-18 09:42 am NW 8.9 13.0----29.84- 78.8--- 5.9-
2024-07-18 09:36 am NW 7.0 14.0----29.84- 79.0--- 5.9-
2024-07-18 09:30 am NW 6.0 9.9----29.84- 79.2--- 5.9-
2024-07-18 09:24 am NW 6.0 9.9----29.83- 79.3--- 5.9-
2024-07-18 09:18 am NW 5.1 11.1----29.83- 80.1--- 5.9-
2024-07-18 09:12 amWNW 6.0 8.0----29.84- 79.9--- 5.9-
2024-07-18 09:06 amWNW 5.1 8.0----29.83- 79.0--- 5.9-
2024-07-18 09:00 am W 2.9 6.0----29.83+0.01 79.0--- 5.9-
2024-07-18 08:54 amWNW 4.1 7.0----29.84- 78.8--- 5.9-
2024-07-18 08:48 am W 2.9 7.0----29.84- 77.5--- 5.9-
2024-07-18 08:42 amWNW 4.1 6.0----29.84- 77.0--- 5.9-
2024-07-18 08:36 am W 1.9 4.1----29.85- 76.6--- 5.9-
2024-07-18 08:30 amWSW 1.0 4.1----29.85- 76.6--- 5.9-
2024-07-18 08:24 am W 1.9 6.0----29.85- 76.5--- 5.9-
2024-07-18 08:18 am W 4.1 7.0----29.85- 76.5--- 5.9-
2024-07-18 08:12 am W 4.1 7.0----29.85- 76.6--- 5.9-
2024-07-18 08:06 am W 5.1 7.0----29.85- 76.8--- 5.9-
2024-07-18 08:00 am W 4.1 6.0----29.84+0.03 77.0--- 5.9-
2024-07-18 07:54 am W 4.1 7.0----29.84- 76.6--- 5.9-
2024-07-18 07:48 amWSW 5.1 8.0----29.84----- 5.9-
2024-07-18 07:42 am W 4.1 7.0----29.84----- 5.9-
2024-07-18 07:36 am W 6.0 8.0----29.84----- 5.9-
2024-07-18 07:30 am W 5.1 8.0----29.84- 75.7--- 5.9-
2024-07-18 07:24 amWSW 6.0 8.9----29.84- 75.7--- 5.9-
2024-07-18 07:18 am W 6.0 8.9----29.84- 75.6--- 5.9-
2024-07-18 07:12 amWSW 6.0 9.9----29.85- 75.6--- 5.9-
2024-07-18 07:06 am W 4.1 7.0----29.85- 75.2--- 5.9-
2024-07-18 07:00 amWSW 4.1 6.0----29.85+0.06 75.0--- 5.9-
2024-07-18 06:54 am W 2.9 5.1----29.85- 75.0--- 5.9-
2024-07-18 06:48 am W 1.9 4.1----29.85- 74.8--- 5.9-
2024-07-18 06:42 am W 1.9 4.1----29.84- 74.8--- 5.9-
2024-07-18 06:36 amWNW 2.9 5.1----29.84- 74.7--- 5.9-
2024-07-18 06:30 am W 2.9 5.1----29.83- 74.5--- 5.9-
2024-07-18 06:24 am W 2.9 5.1----29.83- 74.7--- 5.9-
2024-07-18 06:18 amWSW 4.1 5.1----29.83- 74.7--- 5.9-
2024-07-18 06:12 am W 1.9 4.1----29.83- 74.7--- 5.9-
2024-07-18 06:06 am W 2.9 7.0----29.83- 74.7--- 5.9-
2024-07-18 06:00 am W 2.9 5.1----29.83+0.04 74.7--- 5.9-
2024-07-18 05:54 am W 1.9 4.1----29.83- 74.7--- 5.9-
2024-07-18 05:48 am W 4.1 6.0----29.82- 74.7--- 5.9-
2024-07-18 05:42 am W 2.9 6.0----29.82- 74.7--- 5.9-
2024-07-18 05:36 am W 2.9 8.0----29.82- 74.8--- 5.9-
2024-07-18 05:30 amWSW 5.1 8.9----29.82- 74.8--- 5.9-
2024-07-18 05:24 am W 2.9 7.0----29.82- 74.8--- 5.9-
2024-07-18 05:18 am W 4.1 8.0----29.82- 74.7--- 5.9-
2024-07-18 05:12 am W 4.1 6.0----29.82- 74.8--- 5.9-
2024-07-18 05:06 am W 5.1 8.9----29.82- 75.0--- 5.9-
2024-07-18 05:00 amWSW 8.0 9.9----29.81+0.02 75.4--- 5.9-
2024-07-18 04:54 amWSW 7.0 8.9----29.81- 75.4--- 5.9-
2024-07-18 04:48 am SW 6.0 8.0----29.81----- 5.9-
2024-07-18 04:42 am SW 6.0 8.9----29.80----- 5.9-
2024-07-18 04:36 am SW 6.0 7.0----29.80----- 5.9-
2024-07-18 04:30 amSSW 6.0 8.0----29.80- 75.7--- 5.9-
2024-07-18 04:24 am S 7.0 8.9----29.80- 75.9--- 5.9-
2024-07-18 04:18 am S 8.9 9.9----29.79- 75.7--- 5.9-
2024-07-18 04:12 amSSW 8.0 9.9----29.79- 75.7--- 5.9-
2024-07-18 04:06 am S 8.0 11.1----29.79- 75.9--- 5.9-
2024-07-18 04:00 am S 8.9 13.0----29.78-0.06 76.5--- 5.9-
2024-07-18 03:54 am S 12.0 13.0----29.78- 76.5--- 5.9-
2024-07-18 03:48 am S 9.9 13.0----29.77- 76.5--- 5.9-
2024-07-18 03:42 am S 8.9 12.0----29.78- 76.5--- 5.9-
2024-07-18 03:36 amSSW 8.0 11.1----29.78- 76.1--- 5.9-
2024-07-18 03:30 amSSW 8.0 8.9----29.78- 76.1--- 5.9-
2024-07-18 03:24 amSSW 6.0 8.0----29.78- 76.1--- 5.9-
2024-07-18 03:18 amSSW 6.0 7.0----29.78- 75.9--- 5.9-
2024-07-18 03:12 amSSW 6.0 8.0----29.78- 76.1--- 5.9-
2024-07-18 03:06 am S 7.0 9.9----29.78- 75.7--- 5.9-
2024-07-18 03:00 amSSW 6.0 8.0----29.78-0.05 75.6--- 5.9-
2024-07-18 02:54 amSSW 7.0 8.9----29.78- 75.6--- 5.9-
2024-07-18 02:48 am S 8.0 8.9----29.78- 75.4--- 5.9-
2024-07-18 02:42 amSSW 8.0 9.9----29.78- 75.6--- 5.9-
2024-07-18 02:36 am S 8.0 11.1----29.79- 75.6--- 5.9-
2024-07-18 02:30 am S 9.9 11.1----29.79- 75.7--- 5.9-
2024-07-18 02:24 amSSE 8.0 9.9----29.78- 75.0--- 5.9-
2024-07-18 02:18 am SE 7.0 8.9----29.78- 74.8--- 5.9-
2024-07-18 02:12 am SE 6.0 7.0----29.78- 74.5--- 5.9-
2024-07-18 02:06 am SE 6.0 6.0----29.79- 74.1--- 5.9-
2024-07-18 02:00 amESE 2.9 5.1----29.79-0.03 73.9--- 5.9-
2024-07-18 01:54 am SE 4.1 5.1----29.80- 74.1--- 5.9-